Regional Weather Roundup
Issued by NWS Cleveland, OH

Home | Current Version | Previous Version | Text Only | Print | Product List | Glossary Off
Versions: 1 2 3 4 5 6 7 8 9 10 11 12 13 14 15 16 17 18 19 20 21 22 23 24 25 26 27 28 29 30 31 32 33 34 35 36 37 38 39 40 41 42 43 44 45 46 47 48 49 50

812
ASUS41 KCLE 221802
RWRCLE
OHIO REGIONAL WEATHER ROUNDUP
NATIONAL WEATHER SERVICE CLEVELAND, OH
100 PM EST WED FEB 22 2017

NOTE: "FAIR" INDICATES FEW OR NO CLOUDS BELOW 12,000 FEET WITH NO
SIGNIFICANT WEATHER AND/OR OBSTRUCTIONS TO VISIBILITY.

OHZ001>008-015>018-024>027-034-035-043-044-221900-
   NORTHWEST OHIO

CITY           SKY/WX    TMP DP  RH WIND       PRES   REMARKS
DEFIANCE       PTSUNNY   62  53  72 S12       29.81F
FINDLAY        CLOUDY    60  53  77 S16       29.83F
TOLEDO EXPRESS CLOUDY    62  55  77 S9        29.81F
TOLEDO EXEC    PTSUNNY   63  55  75 S13       29.82F
LIMA           CLOUDY    58  56  93 S13       29.84F FOG
$$

OHZ009>014-019>023-028>033-038-089-221900-
   NORTHEAST OHIO

CITY           SKY/WX    TMP DP  RH WIND       PRES   REMARKS
CLE-HOPKINS    CLOUDY    62  53  72 S15       29.87F
CLE-LAKEFRONT  CLOUDY    63  54  72 S14       29.84F
CUY CO. ARPT   PTSUNNY   61  55  82 SW8       29.86F
LORAIN-ELYRIA  CLOUDY    61  53  75 SW20      29.86F
ASHTABULA      CLOUDY    57  55  93 S8        29.87F
AKRON-CANTON   CLOUDY    56  53  90 SW12      29.89F FOG
WOOSTER          N/A     56  54  93 SW9       29.89F
MANSFIELD      CLOUDY    57  55  93 S13       29.88F
YOUNGSTOWN     LGT RAIN  55  54  96 SW6       29.90F FOG
$$

OHZ042-051>053-060>062-070>072-077>081-221900-
  SOUTHWEST OHIO

CITY           SKY/WX    TMP DP  RH WIND       PRES   REMARKS
CINC-COVINGTON CLOUDY    60  57  89 SW9       29.88F
CINC-LUNKEN    CLOUDY    62  59  90 S6        29.89F
HAMILTON       CLOUDY    61  58  90 SW3       29.89F
DAYTON         CLOUDY    57  56  96 S12       29.87F FOG
WRIGHT-PAT AFB CLOUDY    59  59 100 S9        29.86F
DAYTON GENERAL CLOUDY    58  56  93 S10       29.87F FOG
WILMINGTON     CLOUDY    57  55  93 S9        29.88F FOG
$$

OHZ036-037-039>041-045>050-054>059-063>069-073>076-082>088-221900-
  CENTRAL AND SOUTHEAST OHIO

CITY           SKY/WX    TMP DP  RH WIND       PRES   REMARKS
COLUMBUS       CLOUDY    59  56  89 S12       29.88F
OSU AIRPORT    CLOUDY    57  57 100 S7        29.88F
BOLTON FIELD   CLOUDY    57  55  94 S10       29.89F
RICKENBACK AFB CLOUDY    57  56  95 S15       29.88F
NEWARK         CLOUDY    58  54  86 S8        29.88F
MARION         CLOUDY    58  53  84 S10G21    29.87F
LANCASTER      CLOUDY    60  55  83 S8        29.89F
ZANESVILLE     CLOUDY    58  54  86 S8        29.90F
NEW PHILLY     NOT AVBL
$$




USA.gov is the U.S. government's official web portal to all federal, state and local government web resources and services.